North Wilkesboro, NC

9:11 AM EST on December 09, 2019 (GMT -0500)
Wilkes County

Weather History for KUKF - August, 2019

Change the Weather History Date:

Saturday, August 24, 2019

  Actual Average Record
Temperature  
Mean Temperature 66 °F -  
Max Temperature 71 °F 84 °F 99 °F (1983)
Min Temperature 60 °F 60 °F 50 °F (2018)
Growing Degree Days 16 (Base 50)    
Moisture  
Dew Point 63 °F    
Average Humidity 100    
Maximum Humidity 100    
Minimum Humidity 94    
Precipitation  
Precipitation 0.03 in - - ()
Sea Level Pressure  
Sea Level Pressure 30.21 in    
Wind  
Wind Speed 5 mph (ENE)    
Max Wind Speed 13 mph    
Max Gust Speed 20 mph    
Visibility 9 miles    
Events Rain    
Averages and records for this station are not official NWS values.
T = Trace of Precipitation, MM = Missing Value Source: NWS Daily Summary

Daily Weather History Graph

Daily Weather History Graph

Search for Another Location

Airport or City:

Astronomy

Aug. 24, 2019 Rise Set
Actual Time 6:49 AM EDT 8:03 PM EDT
Civil Twilight 6:22 AM EDT 8:30 PM EDT
Nautical Twilight 5:50 AM EDT 9:01 PM EDT
Astronomical Twilight 5:17 AM EDT 9:35 PM EDT
Moon 12:45 AM EDT (8/24) 3:12 PM EDT (8/24)
Length of Visible Light 14h 07m
Length of Day
13h 13m
Last Quarter, 39% of the Moon is Illuminated
Aug 24
Last Quarter
Aug 30
New
Sep 5
First Quarter
Sep 14
Full
Sep 21
Last Quarter

Hourly Weather History & Observations

Time (EDT) Temp. Dew Point Humidity Pressure Visibility Wind Dir Wind Speed Gust Speed Precip Events Conditions
12:15 AM 71.6 °F 71.6 °F 100% 30.12 in 10.0 mi WSW 3.5 mph - N/A   Scattered Clouds
12:35 AM 71.6 °F 71.6 °F 100% 30.12 in 10.0 mi Calm Calm - N/A   Scattered Clouds
12:55 AM 71.6 °F 71.6 °F 100% 30.12 in 10.0 mi Calm Calm - N/A   Light Drizzle
1:15 AM 69.8 °F 69.8 °F 100% 30.12 in 10.0 mi North 3.5 mph - N/A   Overcast
1:35 AM 71.6 °F 71.6 °F 100% 30.13 in 10.0 mi ENE 5.8 mph - N/A   Overcast
1:55 AM 71.6 °F 71.6 °F 100% 30.13 in 10.0 mi East 3.5 mph - N/A   Overcast
2:15 AM 69.8 °F 69.8 °F 100% 30.12 in 10.0 mi ENE 6.9 mph - N/A Rain Light Rain
2:35 AM 69.8 °F 69.8 °F 100% 30.12 in 5.0 mi Calm Calm - N/A Rain Rain
2:55 AM 69.8 °F 69.8 °F 100% 30.13 in 7.0 mi East 6.9 mph - N/A Rain Rain
3:15 AM 68.0 °F 68.0 °F 100% 30.13 in 2.0 mi ENE 9.2 mph - N/A Rain Heavy Rain
3:35 AM 66.2 °F 66.2 °F 100% 30.14 in 5.0 mi ENE 9.2 mph - N/A Rain Rain
3:55 AM 66.2 °F 66.2 °F 100% 30.13 in 5.0 mi NE 8.1 mph - N/A Rain Heavy Rain
4:15 AM 64.4 °F 64.4 °F 100% 30.13 in 3.0 mi ENE 12.7 mph 17.3 mph N/A Rain Heavy Rain
4:35 AM 64.4 °F 64.4 °F 100% 30.13 in 4.0 mi ENE 11.5 mph 19.6 mph N/A Rain Rain
4:55 AM 62.6 °F 62.6 °F 100% 30.14 in 2.0 mi ENE 11.5 mph 16.1 mph N/A Rain Heavy Rain
5:15 AM 62.6 °F 62.6 °F 100% 30.14 in 5.0 mi ENE 5.8 mph - N/A Rain Light Rain
5:35 AM 62.6 °F 62.6 °F 100% 30.15 in 10.0 mi Calm Calm - N/A Rain Light Rain
5:55 AM 62.6 °F 62.6 °F 100% 30.16 in 7.0 mi ENE 8.1 mph - N/A Rain Rain
6:15 AM 62.6 °F 62.6 °F 100% 30.16 in 10.0 mi ENE 9.2 mph - N/A   Light Drizzle
6:35 AM 60.8 °F 60.8 °F 100% 30.17 in 10.0 mi East 3.5 mph - 0.01 in   Overcast
6:55 AM 60.8 °F 60.8 °F 100% 30.17 in 10.0 mi East 3.5 mph - 0.01 in   Light Drizzle
7:15 AM 60.8 °F 60.8 °F 100% 30.18 in 10.0 mi Calm Calm - N/A   Overcast
7:35 AM 60.8 °F 60.8 °F 100% 30.20 in 10.0 mi Calm Calm - N/A   Overcast
7:55 AM 60.8 °F 60.8 °F 100% 30.20 in 10.0 mi ENE 4.6 mph - N/A   Overcast
8:15 AM 60.8 °F 60.8 °F 100% 30.21 in 10.0 mi ENE 8.1 mph - N/A   Overcast
8:35 AM 60.8 °F 60.8 °F 100% 30.22 in 10.0 mi East 6.9 mph - N/A   Overcast
8:55 AM 60.8 °F 60.8 °F 100% 30.24 in 10.0 mi NE 5.8 mph - N/A   Overcast
9:15 AM 60.8 °F 60.8 °F 100% 30.24 in 10.0 mi ENE 6.9 mph - N/A Rain Rain
9:35 AM 60.8 °F 60.8 °F 100% 30.25 in 10.0 mi NNE 4.6 mph - N/A Rain Light Rain
9:55 AM 60.8 °F 60.8 °F 100% 30.25 in 10.0 mi NNE 5.8 mph - N/A Rain Rain
10:35 AM 60.8 °F 60.8 °F 100% 30.26 in 10.0 mi NNE 8.1 mph - N/A   Light Drizzle
10:55 AM 60.8 °F 60.8 °F 100% 30.27 in 7.0 mi NNE 6.9 mph - N/A   Light Drizzle
11:15 AM 60.8 °F 60.8 °F 100% 30.27 in 10.0 mi NE 5.8 mph - N/A   Drizzle
11:35 AM 60.8 °F 60.8 °F 100% 30.27 in 7.0 mi NE 8.1 mph - N/A   Drizzle
11:55 AM 60.8 °F 60.8 °F 100% 30.26 in 7.0 mi NE 9.2 mph - N/A   Light Drizzle
12:15 PM 62.6 °F 62.6 °F 100% 30.26 in 10.0 mi NE 8.1 mph - N/A   Overcast
12:35 PM 62.6 °F 62.6 °F 100% 30.26 in 10.0 mi ENE 6.9 mph 19.6 mph 0.01 in   Overcast
12:55 PM 62.6 °F 62.6 °F 100% 30.26 in 10.0 mi ENE 9.2 mph - 0.01 in   Overcast
1:15 PM 62.6 °F 62.6 °F 100% 30.26 in 10.0 mi ENE 8.1 mph - N/A   Overcast
1:35 PM 62.6 °F 62.6 °F 100% 30.26 in 10.0 mi NE 9.2 mph - N/A   Overcast
1:55 PM 62.6 °F 62.6 °F 100% 30.25 in 10.0 mi ENE 6.9 mph - N/A   Overcast
2:15 PM 62.6 °F 62.6 °F 100% 30.24 in 10.0 mi NE 8.1 mph - N/A   Overcast
2:35 PM 64.4 °F 62.6 °F 94% 30.24 in 10.0 mi NE 6.9 mph - N/A   Overcast
2:55 PM 62.6 °F 62.6 °F 100% 30.24 in 10.0 mi ENE 5.8 mph - N/A   Overcast
3:15 PM 62.6 °F 62.6 °F 100% 30.24 in 10.0 mi NE 8.1 mph - N/A   Overcast
3:35 PM 62.6 °F 62.6 °F 100% 30.24 in 10.0 mi ENE 6.9 mph - N/A   Overcast
3:55 PM 62.6 °F 62.6 °F 100% 30.23 in 10.0 mi NE 8.1 mph - N/A   Overcast
4:15 PM 62.6 °F 62.6 °F 100% 30.22 in 10.0 mi NE 10.4 mph - N/A   Overcast
4:35 PM 62.6 °F 62.6 °F 100% 30.22 in 10.0 mi ENE 8.1 mph - N/A   Overcast
4:55 PM 62.6 °F 62.6 °F 100% 30.22 in 10.0 mi ENE 4.6 mph - N/A   Overcast
5:15 PM 62.6 °F 62.6 °F 100% 30.22 in 10.0 mi ENE 4.6 mph - N/A   Overcast
5:35 PM 62.6 °F 62.6 °F 100% 30.22 in 10.0 mi East 4.6 mph - N/A   Overcast
5:55 PM 62.6 °F 62.6 °F 100% 30.22 in 10.0 mi ENE 3.5 mph - N/A   Overcast
6:15 PM 62.6 °F 62.6 °F 100% 30.22 in 10.0 mi NE 5.8 mph - N/A   Overcast
6:35 PM 62.6 °F 62.6 °F 100% 30.22 in 10.0 mi ENE 3.5 mph - N/A   Overcast
6:55 PM 62.6 °F 60.8 °F 94% 30.22 in 10.0 mi East 3.5 mph - N/A   Overcast
7:15 PM 62.6 °F 60.8 °F 94% 30.22 in 10.0 mi East 3.5 mph - N/A   Overcast
7:35 PM 62.6 °F 62.6 °F 100% 30.23 in 10.0 mi Calm Calm - N/A   Overcast
7:55 PM 62.6 °F 62.6 °F 100% 30.24 in 10.0 mi Calm Calm - N/A   Overcast
8:15 PM 60.8 °F 60.8 °F 100% 30.24 in 10.0 mi Calm Calm - 0.01 in   Overcast
8:35 PM 62.6 °F 62.6 °F 100% 30.24 in 10.0 mi Calm Calm - 0.01 in   Overcast
8:55 PM 60.8 °F 60.8 °F 100% 30.25 in 10.0 mi Calm Calm - 0.01 in   Overcast
9:15 PM 60.8 °F 60.8 °F 100% 30.26 in 10.0 mi Calm Calm - N/A   Overcast
9:35 PM 60.8 °F 60.8 °F 100% 30.26 in 10.0 mi Calm Calm - N/A   Overcast
9:55 PM 60.8 °F 60.8 °F 100% 30.26 in 10.0 mi Calm Calm - N/A   Overcast
10:15 PM 60.8 °F 60.8 °F 100% 30.27 in 10.0 mi Calm Calm - N/A   Overcast
10:55 PM 60.8 °F 60.8 °F 100% 30.26 in 10.0 mi Calm Calm - N/A   Overcast
11:15 PM 60.8 °F 60.8 °F 100% 30.27 in 10.0 mi Calm Calm - N/A   Overcast
11:35 PM 60.8 °F 60.8 °F 100% 30.28 in 10.0 mi Calm Calm - N/A   Overcast
11:55 PM 60.8 °F 60.8 °F 100% 30.27 in 10.0 mi Calm Calm - N/A   Overcast